[[{"header":{"parameterUnit":"m.s-1","parameterCategory":1,"la1":30.2991,"la2":30.254,"lo1":-89.0895,"lo2":-89.0444,"dy":0.0017,"dx":0.0017,"nx":28,"ny":28,"refTime":"2025-01-29T03:00:00:Z","depth":0,"parameterNumber":2,"parameterNumberName":"U-component_of_WINDS"},"data":[0,0,0,0,0,0,0,0,0,0,0,0,0,0,0,0,0,0,0,0,0,0,0,0,0,0,0,0,0,0,0,0,0,0,0,0,0,0,0,0,0,0,0,0,0,0,0,0,0,0,0,0,0,0,0,0,0,0,-3.7048,-3.7049,0,-3.7165,-3.7166,-3.7167,-3.7198,-3.7198,-3.7197,-3.7196,-3.7315,-3.7319,-3.7323,0,0,0,0,0,0,0,0,0,0,0,0,0,-3.6851,-3.6855,-3.7048,-3.7049,-3.7051,-3.7164,-3.7166,-3.7168,-3.7198,-3.7198,-3.7197,-3.7196,-3.7314,-3.7319,-3.7323,0,0,0,0,0,0,0,0,0,0,0,0,0,-3.6949,-3.6856,-3.7047,-3.708,-3.7084,-3.7164,-3.7166,-3.7168,-3.7199,-3.7198,-3.7197,-3.7196,-3.7313,-3.7318,-3.7324,-3.738,0,0,-3.7341,-3.7344,0,0,0,0,0,0,0,0,-3.6944,-3.6956,-3.7074,-3.7078,-3.7082,-3.7166,-3.7141,-3.7239,-3.7199,-3.7155,-3.7196,-3.7195,-3.7266,-3.7276,-3.73,-3.7386,-3.7391,-3.7342,-3.7345,-3.7348,-3.7349,0,0,0,0,0,0,0,-3.6937,-3.6952,-3.7094,-3.7075,-3.7081,-3.7088,-3.7101,-3.7159,-3.7215,-3.7159,-3.7161,-3.7175,-3.7269,-3.7295,-3.7303,-3.7393,-3.7342,-3.7347,-3.735,-3.7353,-3.753,-3.7531,0,0,0,0,0,0,-3.6924,-3.6946,-3.709,-3.7097,-3.7009,-3.7093,-3.7107,-3.714,-3.7215,-3.7225,-3.7176,-3.7176,-3.7285,-3.7296,-3.7307,-3.7377,-3.7348,-3.7353,-3.7356,-3.7529,-3.753,-3.7532,0,0,0,0,0,0,-3.692,-3.6937,-3.7086,-3.7022,-3.7042,-3.7097,-3.7134,-3.7143,-3.7169,-3.7227,-3.7237,-3.7192,-3.7285,-3.7299,-3.7362,-3.7382,-3.7356,-3.7361,-3.7527,-3.7529,-3.7531,-3.7518,0,0,0,0,0,0,-3.6914,-3.6935,-3.6957,-3.7023,-3.7045,-3.7138,-3.7135,-3.7146,-3.7179,-3.718,-3.7245,-3.7255,-3.7285,-3.7353,-3.7367,-3.7389,-3.7365,-3.7526,-3.7528,-3.753,-3.7517,-3.7519,-3.7521,0,0,0,0,0,-3.6907,-3.6949,-3.6958,-3.6975,-3.7074,-3.7139,-3.7152,-3.7186,-3.718,-3.7202,-3.724,-3.7253,-3.7378,-3.7359,-3.7376,-3.74,-3.7524,-3.7527,-3.753,-3.7516,-3.7519,-3.7521,0,0,0,0,0,0,-3.6884,-3.6958,-3.6969,-3.7033,-3.708,-3.7144,-3.7173,-3.7188,-3.7237,-3.7236,-3.7277,-3.7291,-3.735,-3.7382,-3.7359,-3.7458,-3.7451,-3.7458,-3.7435,-3.7438,-3.744,-3.7431,-3.737,0,0,0,0,0,-3.6887,-3.6934,-3.6996,-3.7046,-3.7069,-3.7117,-3.7147,-3.7169,-3.7219,-3.7238,-3.7281,-3.7328,-3.7378,-3.741,-3.746,-3.7522,-3.7536,-3.7547,-3.7549,-3.7551,-3.7555,-3.759,-3.7595,-3.7541,-3.7541,-3.7541,0,0,-3.6892,-3.6938,-3.6965,-3.7043,-3.7081,-3.7129,-3.7133,-3.7183,-3.7219,-3.7246,-3.7307,-3.734,-3.7396,-3.7458,-3.7488,-3.7486,-3.7573,-3.7554,-3.7555,-3.7559,-3.7593,-3.7598,-3.7603,-3.7543,-3.7543,-3.7542,0,0,-3.6926,-3.6966,-3.7012,-3.705,-3.7109,-3.7141,-3.7152,-3.7214,-3.7237,-3.7299,-3.7321,-3.7364,-3.7449,-3.7488,-3.7519,-3.7568,-3.7581,-3.7583,-3.7594,-3.7627,-3.7631,-3.7635,-3.7651,-3.7657,-3.7587,-3.7587,-3.7587,0,-3.6924,-3.6997,-3.7034,-3.7083,-3.7116,-3.7143,-3.719,-3.7226,-3.7297,-3.7319,-3.7317,-3.7425,-3.7464,-3.7536,-3.7548,-3.7572,-3.7586,-3.7575,-3.7628,-3.7632,-3.7636,-3.7652,-3.7658,-3.7587,-3.7587,-3.7587,-3.7587,0,-3.6992,-3.7042,-3.7072,-3.714,-3.7177,-3.7225,-3.7269,-3.7302,-3.7322,-3.7354,-3.7416,-3.7465,-3.7525,-3.7544,-3.7563,-3.7618,-3.7615,-3.762,-3.7614,-3.764,-3.7656,-3.7663,-3.7587,-3.7587,-3.7587,-3.7587,0,0,-3.7013,-3.7101,-3.7111,-3.7142,-3.7209,-3.7249,-3.7298,-3.7356,-3.7383,-3.7432,-3.7473,-3.7546,-3.755,-3.7585,-3.761,-3.7639,-3.7674,-3.7641,-3.7642,-3.7644,-3.7736,-3.7731,-3.7737,-3.7684,-3.7685,-3.7686,-3.7731,0,-3.7053,-3.7141,-3.7176,-3.7248,-3.7294,-3.7321,-3.7364,-3.7409,-3.7441,-3.7485,-3.752,-3.757,-3.7573,-3.7594,-3.7625,-3.7663,-3.7692,-3.7661,-3.7722,-3.7724,-3.7705,-3.7746,-3.774,-3.778,-3.7737,-3.7738,-3.7739,0,-3.7112,-3.7161,-3.7237,-3.7298,-3.7319,-3.7356,-3.7412,-3.7454,-3.7507,-3.7528,-3.7567,-3.759,-3.7642,-3.7634,-3.7707,-3.7684,-3.7712,-3.7734,-3.7737,-3.7742,-3.7731,-3.775,-3.7793,-3.7799,-3.7749,-3.7749,-3.7748,0,-3.7117,-3.7203,-3.7259,-3.7285,-3.7358,-3.7384,-3.7415,-3.7467,-3.7499,-3.7549,-3.757,-3.7625,-3.7655,-3.7697,-3.7734,-3.7725,-3.7803,-3.7798,-3.7821,-3.782,-3.7834,-3.7832,-3.788,-3.7855,-3.7855,-3.7855,-3.7855,0,-3.7158,-3.7203,-3.7262,-3.7296,-3.7348,-3.7388,-3.7438,-3.7471,-3.7517,-3.7558,-3.7586,-3.7624,-3.7672,-3.7717,-3.7746,-3.7801,-3.7815,-3.7833,-3.784,-3.7829,-3.7827,-3.7846,-3.7844,-3.7856,-3.7856,-3.7856,-3.7855,0,-3.7172,-3.7213,-3.7276,-3.734,-3.7358,-3.7392,-3.7447,-3.7482,-3.7515,-3.7567,-3.7582,-3.7634,-3.7688,-3.773,-3.78,-3.782,-3.7877,-3.7886,-3.7859,-3.7863,-3.7883,-3.7879,-3.7943,-3.7953,-3.7922,-3.7923,-3.7923,0,-3.7194,-3.7229,-3.7297,-3.7326,-3.7358,-3.7405,-3.7439,-3.748,-3.7514,-3.7577,-3.7603,-3.7659,-3.7706,-3.7791,-3.7835,-3.7889,-3.7898,-3.7917,-3.7906,-3.7894,-3.7896,-3.7893,-3.7896,-3.7917,-3.7917,-3.7917,-3.7917,0,-3.7228,-3.7247,-3.7294,-3.7349,-3.7388,-3.7433,-3.7479,-3.7501,-3.7551,-3.7588,-3.7643,-3.7679,-3.7751,-3.7806,-3.7864,-3.7897,-3.7915,-3.7921,-3.7929,-3.7917,-3.79,-3.7908,-3.7861,-3.7918,-3.7918,-3.7918,-3.7918,-3.7918,-3.7246,-3.7278,-3.7331,-3.7382,-3.7421,-3.7463,-3.7498,-3.7537,-3.7583,-3.7644,-3.7667,-3.7723,-3.7775,-3.7856,-3.7889,-3.7934,-3.7935,-3.7946,-3.7949,-3.7951,-3.7949,-3.7894,-3.7945,-3.7945,-3.7945,-3.7945,-3.7945,0,-3.728,-3.7316,-3.7363,-3.7426,-3.7466,-3.7481,-3.7532,-3.7565,-3.7614,-3.7661,-3.7707,-3.777,-3.7824,-3.7873,-3.7929,-3.7955,-3.7965,-3.7968,-3.7966,-3.7973,-3.7946,-3.7933,-3.7959,-3.7959,-3.7959,-3.7959,-3.7959,-3.7959,-3.7303,-3.7358,-3.7383,-3.7458,-3.7493,-3.7549,-3.7577,-3.7616,-3.7653,-3.7723,-3.7767,-3.7799,-3.7847,-3.7906,-3.7956,-3.7969,-3.7988,-3.7989,-3.8004,-3.7977,-3.7975,-3.7973,-3.7961,-3.7993,-3.7993,-3.8027,-3.8027,-3.8027]},{"header":{"parameterUnit":"m.s-1","parameterCategory":1,"la1":30.2991,"la2":30.254,"lo1":-89.0895,"lo2":-89.0444,"dy":0.0017,"dx":0.0017,"nx":28,"ny":28,"refTime":"2025-01-29T03:00:00:Z","depth":0,"parameterNumber":3,"parameterNumberName":"V-component_of_WINDS"},"data":[0,0,0,0,0,0,0,0,0,0,0,0,0,0,0,0,0,0,0,0,0,0,0,0,0,0,0,0,0,0,0,0,0,0,0,0,0,0,0,0,0,0,0,0,0,0,0,0,0,0,0,0,0,0,0,0,0,0,5.6727,5.6728,0,5.6754,5.6755,5.6755,5.6712,5.6711,5.6709,5.6708,5.6734,5.6736,5.6738,0,0,0,0,0,0,0,0,0,0,0,0,0,5.6639,5.6641,5.6727,5.6728,5.6728,5.6754,5.6755,5.6755,5.6712,5.6711,5.6709,5.6707,5.6733,5.6736,5.6738,0,0,0,0,0,0,0,0,0,0,0,0,0,5.6673,5.6642,5.6727,5.671,5.6709,5.6754,5.6755,5.6755,5.6713,5.6711,5.6708,5.6706,5.6733,5.6736,5.6739,5.6802,0,0,5.6748,5.675,0,0,0,0,0,0,0,0,5.6671,5.6676,5.6712,5.6711,5.671,5.6728,5.6733,5.6771,5.6713,5.6711,5.6708,5.6705,5.6734,5.6737,5.6746,5.6803,5.6804,5.6749,5.675,5.6752,5.6753,0,0,0,0,0,0,0,5.6669,5.6675,5.6738,5.6713,5.6711,5.6701,5.6703,5.674,5.6734,5.6711,5.6708,5.6712,5.6733,5.6744,5.6747,5.6805,5.6748,5.6751,5.6753,5.6754,5.6918,5.6921,0,0,0,0,0,0,5.6669,5.6673,5.6737,5.6739,5.6685,5.6704,5.6707,5.6724,5.6734,5.6733,5.6714,5.671,5.6739,5.6743,5.6747,5.6825,5.6752,5.6755,5.6756,5.6916,5.6919,5.6922,0,0,0,0,0,0,5.6667,5.6675,5.6736,5.6705,5.6712,5.6708,5.6728,5.6726,5.6737,5.6736,5.6735,5.6726,5.6738,5.6743,5.679,5.6825,5.6756,5.6759,5.6913,5.6917,5.692,5.6979,0,0,0,0,0,0,5.6665,5.6674,5.6698,5.6706,5.6714,5.6778,5.673,5.6728,5.6742,5.6738,5.6747,5.6747,5.6736,5.6785,5.6793,5.6828,5.6761,5.691,5.6915,5.6919,5.6974,5.6984,5.6993,0,0,0,0,0,5.6662,5.6713,5.67,5.6708,5.6744,5.678,5.6784,5.6772,5.6745,5.677,5.677,5.6746,5.682,5.679,5.6798,5.6835,5.6908,5.6913,5.6919,5.697,5.6982,5.6993,0,0,0,0,0,0,5.6708,5.6713,5.6699,5.6754,5.6767,5.6773,5.6803,5.6785,5.6806,5.68,5.6784,5.6786,5.6837,5.684,5.6808,5.6899,5.6859,5.6867,5.6895,5.6907,5.6917,5.6916,5.6764,0,0,0,0,0,5.6725,5.6754,5.6757,5.6805,5.6812,5.6807,5.6822,5.6812,5.6824,5.6829,5.6832,5.6845,5.6872,5.6889,5.6913,5.6974,5.6977,5.7003,5.7013,5.7021,5.7028,5.7064,5.7076,5.694,5.694,5.694,0,0,5.6759,5.6766,5.6785,5.6815,5.6823,5.6855,5.6811,5.6845,5.6869,5.6834,5.6879,5.6882,5.6896,5.6951,5.6975,5.6955,5.7066,5.7028,5.7034,5.7037,5.7071,5.7084,5.7095,5.6944,5.6943,5.6943,0,0,5.6839,5.6846,5.6889,5.6899,5.6914,5.691,5.692,5.6929,5.693,5.6975,5.6951,5.6978,5.7023,5.7035,5.7046,5.7133,5.7114,5.7141,5.7192,5.7227,5.7238,5.7248,5.7281,5.7293,5.7148,5.7148,5.7148,0,5.688,5.6927,5.6912,5.695,5.6964,5.6935,5.6979,5.699,5.7011,5.7022,5.6999,5.7057,5.7064,5.7123,5.7145,5.7154,5.7167,5.7141,5.7238,5.7247,5.7256,5.7288,5.73,5.7152,5.7151,5.7151,5.7151,0,5.6978,5.7011,5.7044,5.7067,5.7085,5.7125,5.7118,5.7138,5.7126,5.7125,5.7173,5.718,5.7207,5.7219,5.7207,5.7277,5.7265,5.724,5.72,5.7272,5.7303,5.7315,5.7157,5.7155,5.7154,5.7154,0,0,5.7088,5.7105,5.7117,5.7129,5.7144,5.7169,5.7208,5.7235,5.7254,5.7269,5.7304,5.7343,5.7322,5.7335,5.7324,5.7354,5.7427,5.7326,5.7326,5.7347,5.7508,5.7529,5.7543,5.7413,5.7415,5.7417,5.7508,0,5.717,5.724,5.7229,5.7296,5.7328,5.7301,5.7336,5.7349,5.735,5.7377,5.7376,5.7406,5.7373,5.7382,5.7411,5.7412,5.7459,5.7405,5.7446,5.7448,5.7447,5.7558,5.758,5.7665,5.7519,5.7521,5.7523,0,5.7275,5.7297,5.7368,5.7381,5.7394,5.7425,5.7451,5.7476,5.7491,5.7489,5.7506,5.749,5.7531,5.7489,5.7546,5.7509,5.7526,5.7529,5.7532,5.7537,5.7492,5.7569,5.7691,5.7706,5.754,5.7539,5.7538,0,5.7353,5.7399,5.7449,5.7459,5.7474,5.7498,5.7505,5.7518,5.7535,5.7557,5.7569,5.7594,5.7609,5.763,5.7622,5.7592,5.7682,5.7638,5.7683,5.7684,5.7705,5.7704,5.7834,5.7711,5.7711,5.771,5.771,0,5.7447,5.7492,5.7484,5.7515,5.7565,5.7553,5.7603,5.7607,5.7619,5.7651,5.7628,5.7658,5.7645,5.7674,5.7668,5.7718,5.7724,5.7725,5.7723,5.7729,5.7729,5.7741,5.7736,5.7714,5.7713,5.7712,5.7712,0,5.7543,5.7539,5.7592,5.7602,5.7606,5.7643,5.7652,5.7682,5.768,5.7721,5.773,5.7728,5.7762,5.7756,5.7792,5.7788,5.7852,5.7841,5.7848,5.7846,5.7892,5.7889,5.8037,5.8057,5.7918,5.7919,5.792,0,5.7605,5.7639,5.7654,5.7675,5.7684,5.7716,5.7735,5.7724,5.7744,5.7766,5.7793,5.7825,5.785,5.7905,5.7908,5.7936,5.7928,5.7978,5.7932,5.7938,5.7933,5.7932,5.7937,5.7988,5.7989,5.7991,5.7992,0,5.7717,5.7714,5.7741,5.777,5.7793,5.7815,5.7834,5.7851,5.7842,5.7866,5.7901,5.7921,5.796,5.7993,5.802,5.8027,5.801,5.8006,5.8018,5.8026,5.8029,5.8031,5.7875,5.8003,5.8002,5.8001,5.8,5.8,5.7799,5.783,5.7847,5.7879,5.7893,5.7912,5.7941,5.7944,5.7974,5.8005,5.7996,5.8037,5.8053,5.8088,5.8099,5.8131,5.8112,5.8129,5.8134,5.814,5.8147,5.8022,5.8135,5.8135,5.8134,5.8134,5.8134,0,5.7913,5.7923,5.7953,5.7981,5.8008,5.7988,5.8009,5.8032,5.8068,5.8085,5.8111,5.8153,5.8185,5.819,5.8221,5.8246,5.8239,5.8255,5.8254,5.8257,5.816,5.8147,5.8261,5.8261,5.8261,5.8261,5.826,5.826,5.7975,5.8028,5.8027,5.8086,5.8095,5.8135,5.8149,5.8167,5.8181,5.8229,5.8256,5.826,5.8272,5.8304,5.8334,5.8334,5.8348,5.8369,5.8367,5.8276,5.8263,5.8252,5.824,5.8371,5.8371,5.8462,5.8463,5.8463]}]]